Location: Mentone
(34.5413°N, 85.5351°W)
Time: 03:14:10
(UTC-06:00)

Cosmos 2026 Rocket - Visible Passes

Search period start: 24 January 2017 00:00
Search period end: 03 February 2017 00:00
Orbit: 939 x 1002 km, 82.9° (Epoch: 22 January)

Date Brightness Start Highest point End Pass type
(mag) Time Alt. Az. Time Alt. Az. Time Alt. Az.
24 Jan 5.3 05:43:07 10° N 05:48:49 41° E 05:54:31 10° SSE visible
24 Jan 5.5 17:26:43 10° ESE 17:29:16 13° E 17:31:49 10° ENE visible
24 Jan 4.1 19:07:33 10° SSW 19:13:46 74° W 19:19:54 10° N visible
25 Jan 4.2 06:06:43 10° N 06:12:48 78° E 06:18:55 10° S visible
25 Jan 4.9 17:47:55 10° SE 17:52:48 25° E 17:57:39 10° NE visible
25 Jan 5.2 19:32:01 10° SSW 19:37:46 39° W 19:43:28 10° N visible
26 Jan 6.6 04:47:10 10° NNE 04:51:02 17° ENE 04:54:53 10° ESE visible
26 Jan 4.2 18:10:36 10° SSE 18:16:28 47° E 18:22:17 10° NNE visible
26 Jan 6.2 19:57:21 10° WSW 20:01:55 21° WNW 20:06:29 10° NNW visible
27 Jan 5.7 05:09:53 10° NNE 05:15:15 32° ENE 05:20:38 10° SE visible
27 Jan 3.9 18:34:05 10° S 18:40:17 87° E 18:46:25 10° N visible
27 Jan 6.8 20:24:51 10° W 20:26:16 11° WNW 20:27:40 10° NW visible
28 Jan 4.6 05:33:18 10° N 05:39:18 60° E 05:45:20 10° SSE visible
28 Jan 4.8 18:58:15 10° SSW 19:04:13 51° W 19:10:10 10° N visible
29 Jan 6.8 04:14:41 10° NE 04:17:22 13° ENE 04:20:02 10° E visible
29 Jan 3.9 05:57:08 10° N 06:03:12 75° W 06:09:19 10° S visible
29 Jan 4.5 17:37:32 10° SSE 17:43:05 36° E 17:48:33 10° NNE visible
29 Jan 5.9 19:23:11 10° SW 19:28:19 27° WNW 19:33:27 10° NNW visible
30 Jan 6.1 04:36:45 10° NNE 04:41:39 25° ENE 04:46:34 10° SE visible
30 Jan 3.9 18:00:44 10° S 18:06:49 68° E 18:12:52 10° NNE visible
30 Jan 6.7 19:49:21 10° WSW 19:52:34 15° WNW 19:55:48 10° NW visible
31 Jan 5.0 04:59:57 10° N 05:05:46 46° E 05:11:38 10° SSE visible
31 Jan 4.3 18:24:36 10° SSW 18:30:43 66° W 18:36:47 10° N visible
01 Feb 4.0 05:23:37 10° N 05:29:44 86° E 05:35:55 10° S visible
01 Feb 5.5 18:49:11 10° SW 18:54:44 35° WNW 19:00:16 10° NNW visible
02 Feb 6.4 04:03:47 10° NNE 04:08:02 19° ENE 04:12:18 10° ESE visible
02 Feb 4.1 05:47:41 10° NNW 05:53:34 51° W 05:59:30 10° SSW visible
02 Feb 4.1 17:27:29 10° SSE 17:33:23 52° E 17:39:15 10° NNE visible
02 Feb 6.5 19:14:43 10° WSW 19:18:55 19° WNW 19:23:08 10° NNW visible
